Flag for Falkland Islands Weather past 2 weeks in Stanley, Falkland Islands

41 °F

Scattered showers. Passing clouds.

Feels Like: 30 °F
Forecast: 42 / 50 °F
Wind: 26 mph from West

Location: Mount Pleasant Airport

Current Time: Nov 30, 2015 at 10:29:59 PM

Latest Report: Nov 30, 2015 at 9:50 PM

Visibility: N/A

Pressure: 29.47 "Hg

Humidity: 87%

Dew point: 37 °F

Location of StanleyLocation

Historic Weather in Stanley — Graph


Stanley temperature yesterday

Maximum temperature yesterday: 64 °F (at 11:50 AM)
Minimum temperature yesterday: 39 °F (at 11:50 PM)
Average temperature yesterday: 52 °F

Past Weeks' High & Low Weather Summary

High66 °F (Nov 24, 3:50 PM)100% (Nov 15, 10:50 PM)29.89 "Hg (Nov 15, 10:50 PM)
Low34 °F (Nov 15, 10:50 PM)31% (Nov 25, 5:50 AM)29.09 "Hg (Nov 17, 9:50 AM)
Average47 °F70%29.61 "Hg
* Reported Nov 15 8:50 PM — Nov 30 8:50 PM, Stanley, Weather by CustomWeather, © 2015

Note: Actual official high and low records may vary slightly from our data, if they occured in-between our weather recording intervals... More about our weather records


Stanley weather history for previous 24 hours

Time TempWeatherWind HumidityBarometerVisibility
8:50 PM
Mon, Nov 30
43 °FPartly cloudy.29 mph71%29.45 "HgN/A
7:50 PM45 °FScattered showers. Broken clouds.30 mph76%29.42 "HgN/A
6:50 PM50 °FScattered showers. Broken clouds.29 mph67%29.36 "HgN/A
5:50 PM55 °FScattered clouds.32 mph59%29.30 "HgN/A
4:50 PM59 °FScattered clouds.29 mph63%29.30 "HgN/A
3:50 PM59 °FPartly sunny.26 mph63%29.27 "HgN/A
2:50 PM59 °FBroken clouds.24 mph63%29.27 "HgN/A
1:50 PM52 °FDrizzle. Partly sunny.25 mph88%29.27 "HgN/A
12:50 PM48 °FDrizzle. Mostly cloudy.31 mph94%29.30 "Hg2 mi
11:50 AM46 °FPartly sunny.36 mph87%29.36 "HgN/A
10:50 AM45 °FLight rain. Partly sunny.29 mph87%29.42 "HgN/A
9:50 AM45 °FLight rain. Mostly cloudy.28 mph87%29.45 "HgN/A
8:50 AM45 °FLight rain. Overcast.21 mph81%29.50 "HgN/A
7:50 AM43 °FLight rain. Broken clouds.20 mph87%29.56 "HgN/A
6:50 AM43 °FPartly sunny.15 mph81%29.59 "HgN/A
5:50 AM41 °FSunny.10 mph76%29.62 "Hg10 mi
4:50 AM37 °FPassing clouds.8 mph81%29.65 "HgN/A
3:50 AM37 °FPassing clouds.7 mph81%29.65 "HgN/A
2:50 AM41 °FClear.3 mph87%29.68 "Hg10 mi
1:50 AM39 °FClear.7 mph87%29.68 "Hg10 mi
12:50 AM39 °FClear.7 mph93%29.71 "Hg10 mi
11:50 PM
Sun, Nov 29
39 °FClear.7 mph100%29.71 "Hg10 mi
10:50 PM41 °FClear.7 mph93%29.71 "Hg10 mi
Weather by CustomWeather, © 2015

See weather overviewHow to use our weather pages